LogoCoinalyze
    Ad-Free Version Главная Рынки Ставки финансирования
    Фьючерсные данные
    • Агрегированные данные (Коины)
    • Индивидуальные графики
    • Глобальные графики
    Оповещения
    TA
    Bitcoin Ethereum BNB Ripple Tron Dogecoin ZCash Monero UNUS SED LEO Chainlink Cardano Stellar Lumens Bitcoin Cash Litecoin Hedera Cronos Polkadot Ethereum Classic Algorand Cosmos Quant VeChain Dash Bitcoin SV BitTorrent Terra Tezos Decred Iota The Graph THETA MultiversX Decentraland NEO Chiliz Golem Basic Attention Token Horizen Qtum DigiByte 0x Beam RIF Token FTX Token Holo FUNToken aelf Zilliqa Ontology Nano Enjin Coin Ravencoin Mask Network Verge Siacoin Status WINk Waves IoTeX iExec RLC Power Ledger Steem Kyber Network Crystal Lisk Ark Ardor WOO Network IOST WAX Icon Storj Loopring Wanchain Bitcoin Diamond Augur AdEx Bitcoin Gold OmiseGO NEM MonaCoin BitShares Ren Komodo V Systems Nuls Mithril SOLVE Maker EOS Aion Nebulas HedgeTrade Bread Fetch.ai TomoChain Polygon Fantom Waltonchain GXChain Bytom Metaverse ETP MaidSafeCoin QASH
    Заказать:
    Еще
    • API
    • Паттерны свечей
    • Пожертвования
    • Контактная
    • Карта сайта
    • Privacy Policy
    • Disclaimer
    • Theme:
    Русский
    • English
    • Français
    • Deutsch
    • Türkçe
    • Nederlands
    • Português (BR)
    • Español
    • 한국어
    • 简体中文
    • 日本語
     
    Войти / Подписаться
    Markets/ Pepe/ PEPE к EUR/ PEPEEUR Binance
    Trades
    WL
    Чат
    Стат
    Новости
    ⦷
    AAA
    0.00000298 7453823.00000000 10:19:01
    0.00000298 14450867.00000000 10:19:01
    0.00000298 7204610.00000000 10:19:01
    0.00000298 28913533.00000000 10:08:54
    0.00000299 335187.00000000 09:32:55
    0.00000299 367989.00000000 09:32:17
    0.00000299 403645.00000000 09:31:38
    0.00000299 443103.00000000 09:30:55
    0.00000299 486597.00000000 09:30:12
    0.00000299 534353.00000000 09:29:32
    0.00000299 279857685.00000000 09:29:05
    0.00000299 568425.00000000 09:28:53
    0.00000299 624501.00000000 09:28:14
    0.00000299 336571.00000000 09:20:40
    0.00000299 369474.00000000 09:20:03
    0.00000299 34.00000000 09:19:44
    0.00000299 822200.00000000 09:19:28
    0.00000299 4013173.00000000 09:16:44
    0.00000299 491836.00000000 09:14:08
    0.00000299 28812700.00000000 09:13:02
    0.00000298 5119496.00000000 09:00:34
    0.00000299 29109300.00000000 08:49:21
    0.00000301 28633747.00000000 08:12:59
    0.00000301 16453800.00000000 08:11:59
    0.00000300 1710970.00000000 08:10:47
    0.00000302 2428041.00000000 08:08:01
    0.00000301 6044673.00000000 08:07:08
    0.00000299 29109300.00000000 08:02:09
    0.00000298 86916800.00000000 07:57:43
    0.00000300 4900000.00000000 07:42:00
    0.00000299 3603669.00000000 07:28:57
    0.00000299 21862400.00000000 07:28:57
    0.00000299 3333700.00000000 07:28:57
    0.00000299 1654169.00000000 07:14:46
    0.00000300 28703900.00000000 07:06:02
    0.00000300 28957300.00000000 07:05:35
    0.00000298 90899603.00000000 07:04:03
    0.00000298 93354550.00000000 07:04:03
    0.00000298 116747417.00000000 07:04:03
    0.00000298 58093547.00000000 06:19:32
    0.00000297 111680480.00000000 05:55:40
    0.00000297 2126209.00000000 05:51:47
    0.00000295 29109300.00000000 05:34:15
    0.00000295 233494834.00000000 05:34:15
    0.00000295 216274839.00000000 05:34:12
    0.00000295 17543859.00000000 05:34:12
    0.00000295 57894736.00000000 05:34:12
    0.00000295 29109300.00000000 05:34:12
    0.00000294 29223100.00000000 05:27:42
    0.00000295 359489.00000000 05:27:36
    0.00000295 394664.00000000 05:27:01
    0.00000295 433612.00000000 05:26:24
    0.00000295 475808.00000000 05:25:45
    0.00000295 522251.00000000 05:25:10
    0.00000295 553780.00000000 05:25:03
    0.00000295 608225.00000000 05:23:55
    0.00000295 665344.00000000 05:23:18
    0.00000296 730689.00000000 05:22:38
    0.00000296 802401.00000000 05:21:54
    0.00000296 90234678.00000000 05:20:26
    0.00000296 20652100.00000000 05:20:26
    0.00000296 92249900.00000000 05:20:26
    0.00000296 78222565.00000000 05:20:25
    0.00000297 4927537.00000000 05:17:42
    0.00000297 41070200.00000000 04:15:20
    0.00000297 4927537.00000000 04:15:16
    0.00000297 29109300.00000000 04:15:16
    0.00000298 14959100.00000000 04:10:14
    0.00000298 346433.00000000 03:59:40
    0.00000298 368522.00000000 03:59:06
    0.00000298 404233.00000000 03:58:33
    0.00000298 443749.00000000 03:57:59
    0.00000298 487316.00000000 03:57:25
    0.00000298 535189.00000000 03:56:51
    0.00000298 587641.00000000 03:56:18
    0.00000298 644957.00000000 03:55:43
    0.00000298 708217.00000000 03:55:11
    0.00000298 777811.00000000 03:54:38
    0.00000298 854133.00000000 03:54:05
    0.00000298 5224267.00000000 03:53:12
    0.00000299 28843428.00000000 03:20:40
    0.00000299 3309893.00000000 03:13:58
    0.00000299 69645540.00000000 02:47:34
    0.00000300 14096500.00000000 02:34:11
    0.00000298 262443840.00000000 02:30:34
    0.00000297 2702635.00000000 02:07:10
    0.00000297 1247370.00000000 02:07:09
    0.00000297 29055500.00000000 01:51:09
    0.00000297 5.00000000 01:46:37
    0.00000297 28959900.00000000 01:46:37
    0.00000298 28969900.00000000 01:30:58
    0.00000298 233494800.00000000 01:30:47
    0.00000298 28950950.00000000 01:30:46
    0.00000297 29025400.00000000 01:20:56
    0.00000293 262800100.00000000 01:01:36
    0.00000293 29109300.00000000 01:01:33
    0.00000293 29109300.00000000 01:01:32
    0.00000294 29305300.00000000 01:01:00
    0.00000294 233494800.00000000 01:00:51
    0.00000294 233494800.00000000 00:53:46
    Выйти
    AAA
    Помощь
    🙂 🤣 😎 🤗 😛 😉 😜 🤑 🤔 😑 😴 😕 🙃 😲 😇 🙁 😢 😬 😟 😠 🕺 🏃 💪 ✌ 👌 👍 👎 👏 👋 🤝 🍺 🍻 🐋 🐟 🦈 🗽 🚄 ✈ 🛑 🚀 🏦 🌚 ⭐ 🌞 ⚡ 🏆 💰 💲 🔨 ❓ ❗ 💯 🔶 🏁
    ☺
    Войти или Подписаться и Чат
    24 Часа
    Изменения
    +1.71%
    Объем
    25,898,502,970
    Хай
    0.00000302
    Лоу
    0.00000290
    7 Дней
    Изменения
    -9.97%
    Объем
    1,343,007,966,872
    Хай
    0.00000343
    Лоу
    0.00000290
    30 Дней
    Изменения
    +18.25%
    Объем
    2,793,018,679,151
    Хай
    0.00000388
    Лоу
    0.00000219
    DOGE, SHIB, PEPE, or Something Else: Which Meme Coin Can Make History in September? (3 AIs Weigh In)
    "DOGE remains the most likely to record the largest move in dollar terms and lead the entire sector," ChatGPT stated.
    cryptopotato.com
    Sept 3, 2026 00:41
    Pepe price rallies 25% as whale demand and futures interest surge
    Key takeaways Pepe has gained 25% this week, including a combined 22% advance over the previous two days. Seven whale transactions worth more than $1 million each occurred Thursday, the highest...
    coinjournal.net
    Aug 21, 2026 08:41
    PEPE Supply on Exchanges Just Took a Massive Hit – What’s Next?
    A drop in PEPE exchange balances has added to bullish expectations despite muted trader interest.
    cryptopotato.com
    Aug 6, 2026 20:02
    PEPE Exchange Outflows Hit Nearly 2-Year High as Whales Accumulate
    Pepe (PEPE) recorded its largest single-day exchange outflow since November 2024, with 4.54 trillion tokens leaving trading platforms, signaling that holders are moving supply away from immediate...
    beincrypto.com
    Aug 6, 2026 04:57
    Meme Coin Based on White House Shooter Conspiracy Rallies 320%
    $HENRY surged 300% after a 2023 Pepe tweet appeared to name the White House shooter, fueling a viral time-travel meme. The post Meme Coin Based on White House Shooter Conspiracy Rallies 320%...
    beincrypto.com
    Apr 27, 2026 16:11
    PEPE surges 4% as market sentiment improves, eyes Key resistance breakout
    Key takeaways Pepe extends gains on Wednesday, stretching its rally from the 50-day EMA. Derivatives data show heightened retail activity as risk-on sentiment returns to the market. Pepe (PEPE) is...
    coinjournal.net
    Apr 22, 2026 11:44
    Why The PEPE Price Could Stage A 55X Rally To Reach New $0.0001 ATH
    The PEPE price has now started to edge back into bullish conversations after the recent inflows into the crypto market. The last time PEPE’s weekly chart printed the kind of structure now...
    newsbtc.com
    Apr 21, 2026 15:30
    Pepe (PEPE) surges 9%, drawing interest from whales
    Key takeaways PEPE is up 9% in the last 24 hours, making it one of the best performers among the top 50 cryptocurrencies by market cap. The rally comes amid renewed interest from whales and retail...
    coinjournal.net
    Apr 16, 2026 07:40
    Murad Says SPX6900 (SPX) Is Primed for a Rally — Is He Right This Time?
    Crypto influencer Murad Mahmudov claims SPX6900 (SPX) is stabilizing at the same market cap level where Dogecoin (DOGE) and Pepe (PEPE) consolidated before their explosive rallies. The...
    beincrypto.com
    Apr 5, 2026 21:36
    The Shiba Inu Of This Cycle: Analyst Shares Why It Is Better To Buy PEPE Now
    In the bull market cycle of 2021-2022, the Shiba Inu meme coin made waves in a way that changed the face of meme coins forever. This came after Dogecoin’s initial 36,000% rally, and Shiba Inu...
    newsbtc.com
    Apr 4, 2026 07:30
    PEPE Explodes by 18% Amid Altcoin Rally, BTC Tapped $74K: Market Watch
    The frog-themed meme coin is today's biggest gainer, followed by TAO, DOT, and BONK.
    cryptopotato.com
    Mar 16, 2026 10:56
    Should PEPE traders brace for volatility as short squeeze potential builds?
    The memecoin market has seen its collective market capitalization drop by 48% over the past year, and 6.9% over the past month, according to CoinMarketCap. According to Glassnode, the memecoin...
    ambcrypto.com
    Mar 7, 2026 18:00
    Просто напечатайте соответствующую команду в чате. Заменить никнейм 1 на действительный никнейм
    • /ignore nick1 Игнорировать пользователя чатом
    • /unignore nick1 Перестать игнорировать пользователя чатом
    • /ignorelist Показать проигнорированных пользователей чатом